Flag for United Arab Emirates Weather past 2 weeks in Sharjah, Sharjah, United Arab Emirates

Now
66 °F

Clear.


Feels Like: 66 °F
Forecast: 69 / 80 °F
Wind: 9 mph from South

Location: Sharjah International Airport

Current Time: Feb 1, 2015 at 1:40:25 AM

Latest Report: Feb 1, 2015 at 1:00 AM


Visibility: 10 mi

Pressure: 30.01 "Hg

Humidity: 73%

Dew point: 57 °F

Location of SharjahLocation

Historic Weather in Sharjah — Graph

°F

Sharjah temperature yesterday

Maximum temperature yesterday: 86 °F (at 1:00 PM)
Minimum temperature yesterday: 55 °F (at 7:00 AM)
Average temperature yesterday: 71 °F

Past Weeks' High & Low Weather Summary

 TemperatureHumidityPressure
High86 °F (Jan 30, 1:00 PM)88% (Jan 18, 5:00 AM)30.24 "Hg (Jan 18, 5:00 AM)
Low52 °F (Jan 21, 4:00 AM)18% (Jan 30, 1:00 PM)29.59 "Hg (Jan 23, 10:00 AM)
Average65 °F60%30.10 "Hg
* Reported Midnight between Jan 16 and Jan 17 — Midnight between Jan 31 and Feb 1, Sharjah, Weather by CustomWeather, © 2014

Note: Actual official high and low records may vary slightly from our data, if they occured in-between our weather recording intervals... More about our weather records

Advertising

Sharjah weather history for previous 24 hours

 ConditionsComfort  
Time TempWeatherWind HumidityBarometerVisibility
12:00 AM
Feb 1
68 °FClear.6 mph73%30.04 "Hg10 mi
11:00 PM
Jan 31
68 °FClear.7 mph78%30.04 "Hg10 mi
10:00 PM70 °FClear.3 mph73%30.07 "Hg10 mi
9:00 PM70 °FClear.3 mph78%30.07 "Hg10 mi
8:00 PM72 °FClear.3 mph69%30.07 "Hg10 mi
7:00 PM73 °FClear.5 mph61%30.04 "Hg10 mi
6:00 PM79 °FSunny.13 mph39%30.01 "Hg10 mi
5:00 PM82 °FSunny.14 mph30%30.01 "Hg10 mi
4:00 PM84 °FSunny.14 mph29%30.01 "Hg10 mi
3:00 PM84 °FSunny.13 mph29%30.01 "Hg10 mi
2:00 PM86 °FSunny.10 mph27%30.04 "Hg10 mi
1:00 PM86 °FSunny.14 mph24%30.07 "Hg10 mi
12:00 PM84 °FSunny.12 mph23%30.09 "Hg10 mi
11:00 AM81 °FSunny.10 mph26%30.12 "Hg10 mi
10:00 AM75 °FSunny.7 mph34%30.12 "Hg10 mi
9:00 AM70 °FSunny.3 mph43%30.12 "Hg10 mi
8:00 AM59 °FSunny.5 mph72%30.09 "Hg10 mi
7:00 AM55 °FClear.5 mph72%30.09 "Hg10 mi
6:00 AM57 °FClear.7 mph59%30.07 "Hg10 mi
5:00 AM57 °FClear.7 mph59%30.07 "Hg10 mi
4:00 AM59 °FClear.6 mph51%30.07 "Hg10 mi
3:00 AM61 °FClear.7 mph48%30.04 "Hg10 mi
2:00 AM61 °FClear.6 mph59%30.07 "Hg10 mi
1:00 AM63 °FClear.5 mph59%30.07 "Hg10 mi
Weather by CustomWeather, © 2014

See weather overviewHow to use our weather pages